J Percy Priest Observed Data For Previous 48 Hours

Caption
Day and Hour Reservoir Elevation (behind dam)* Tailwater Elevation (below dam)* Average Hourly Discharge*
4/22/2018 1 AM CDT 489.58 399.68 4,700
4/22/2018 2 AM CDT 489.56 399.46 4,700
4/22/2018 3 AM CDT 489.54 399.54 4,700
4/22/2018 4 AM CDT 489.52 399.52 4,700
4/22/2018 5 AM CDT 489.50 399.50 4,700
4/22/2018 6 AM CDT 489.48 399.58 4,700
4/22/2018 7 AM CDT 489.45 399.60 4,700
4/22/2018 8 AM CDT 489.42 399.63 4,700
4/22/2018 9 AM CDT 489.40 399.55 4,700
4/22/2018 10 AM CDT 489.39 399.52 4,700
4/22/2018 11 AM CDT 489.38 399.49 4,700
4/22/2018 12 PM CDT 489.37 399.49 4,700
4/22/2018 1 PM CDT 489.37 399.57 4,700
4/22/2018 2 PM CDT 489.37 399.64 4,700
4/22/2018 3 PM CDT 489.36 399.69 4,700
4/22/2018 4 PM CDT 489.35 399.63 4,700
4/22/2018 5 PM CDT 489.33 399.58 4,700
4/22/2018 6 PM CDT 489.32 399.64 4,700
4/22/2018 7 PM CDT 489.32 399.70 4,700
4/22/2018 8 PM CDT 489.32 399.80 4,700
4/22/2018 9 PM CDT 489.32 399.85 4,700
4/22/2018 10 PM CDT 489.35 400.13 4,700
4/22/2018 11 PM CDT 489.38 400.20 4,700
4/23/2018 12 AM CDT 489.38 400.20 4,700
4/23/2018 1 AM CDT 489.45 400.72 4,700
4/23/2018 2 AM CDT 489.48 401.19 4,700
4/23/2018 3 AM CDT 489.50 401.18 4,700
4/23/2018 4 AM CDT 489.65 401.15 4,700
4/23/2018 5 AM CDT 489.70 401.10 4,700
4/23/2018 6 AM CDT 489.75 401.05 4,700
4/23/2018 7 AM CDT 489.81 400.79 4,700
4/23/2018 8 AM CDT 489.91 401.19 4,700
4/23/2018 9 AM CDT 489.99 401.73 4,700
4/23/2018 10 AM CDT 490.07 401.93 4,700
4/23/2018 11 AM CDT 490.19 402.09 4,700
4/23/2018 12 PM CDT 490.28 402.25 4,700
4/23/2018 1 PM CDT 490.39 402.65 4,700
4/23/2018 2 PM CDT 490.47 402.78 4,700
4/23/2018 3 PM CDT 490.57 402.80 4,700
4/23/2018 4 PM CDT 490.66 403.33 4,700
4/23/2018 5 PM CDT 490.76 403.53 4,700
4/23/2018 6 PM CDT 490.83 403.70 4,700
4/23/2018 7 PM CDT 490.93 403.87 4,700
4/23/2018 8 PM CDT 491.03 403.90 4,700
4/23/2018 9 PM CDT 491.12 403.90 4,700
4/23/2018 10 PM CDT 491.21 403.70 4,700
4/23/2018 11 PM CDT 491.32 403.70 4,700
4/24/2018 12 AM CDT 491.43 403.65 4,700
4/24/2018 1 AM CDT 491.56 403.55 4,700
4/24/2018 2 AM CDT 491.66 403.44 4,700
4/24/2018 3 AM CDT 491.73 403.33 4,700
4/24/2018 4 AM CDT 491.78 403.20 4,700
4/24/2018 5 AM CDT 491.78 403.18 4,700
4/24/2018 6 AM CDT 491.80 403.15 4,700
4/24/2018 7 AM CDT 491.93 403.00 4,700
4/24/2018 8 AM CDT 491.97 403.00 4,700
4/24/2018 9 AM CDT 492.00 402.94 4,700
4/24/2018 10 AM CDT 492.04 402.70 4,700
4/24/2018 11 AM CDT 492.08 402.81 4,700
4/24/2018 12 PM CDT 492.10 402.80 4,700
4/24/2018 1 PM CDT 492.12 402.80 4,700
4/24/2018 2 PM CDT 492.15 402.78 4,700
4/24/2018 3 PM CDT 492.17 402.77 4,700
4/24/2018 4 PM CDT 492.19 402.63 4,700
4/24/2018 5 PM CDT 492.21 402.58 4,700
4/24/2018 6 PM CDT 492.23 402.63 4,700
4/24/2018 7 PM CDT 492.24 402.62 4,700
4/24/2018 8 PM CDT 492.25 402.61 4,700

Elevations are in feet above sea level. Discharges are in cubic feet per second and are reported at the end of the hour.